CW9443 Weather Reports


time (UTC)temp
F
wind
direction
speed
knots
gust
knots
rain 1hr
in
rain 24hr
in
rain mn
in
humidity
%
barometer
mb
20260505101550 53 265 0.0 0.0 0.00 0.00 0.00 88 1012.1
20260505100046 54 265 0.0 0.0 0.00 0.00 0.00 87 1012.2
20260505093041 54 265 0.0 0.0 0.00 0.00 0.00 85 1012.4
20260505091540 55 265 0.0 0.0 0.00 0.00 0.00 82 1012.5
20260505090043 55 265 0.0 0.0 0.00 0.00 0.00 80 1012.8
20260505083048 55 264 0.0 0.0 0.00 0.00 0.00 79 1013.0
20260505081538 55 265 0.0 0.0 0.00 0.00 0.00 78 1013.3
20260505080043 55 264 0.0 0.0 0.00 0.00 0.00 79 1013.3
20260505073034 55 265 0.0 0.0 0.00 0.00 0.00 77 1013.4
20260505071537 56 264 0.0 0.0 0.00 0.00 0.00 75 1013.4
20260505070026 56 265 0.0 0.0 0.00 0.00 0.00 75 1013.5
20260505063034 56 264 0.0 0.0 0.00 0.00 0.00 75 1013.5
20260505061537 55 265 0.0 0.0 0.00 0.00 0.00 79 1013.5
20260505060038 55 264 0.0 0.0 0.00 0.00 0.00 81 1013.5
20260505053034 56 265 0.0 0.0 0.00 0.00 0.00 80 1013.6
20260505051530 56 265 0.0 0.0 0.00 0.00 0.00 79 1013.7
20260505041534 57 265 0.0 0.0 0.00 0.00 0.00 80 1013.6
20260505040036 57 265 0.0 0.0 0.00 0.00 0.00 78 1013.5
20260505033044 57 272 0.9 0.0 0.00 0.00 0.00 80 1013.4
20260505031553 57 273 0.0 0.0 0.00 0.00 0.00 79 1013.1
20260505030045 58 271 0.0 0.0 0.00 0.00 0.00 77 1013.0
20260505023040 58 271 0.0 0.0 0.00 0.00 0.00 77 1012.9
20260505021536 59 275 0.0 0.0 0.00 0.00 0.00 75 1012.9
20260505020037 59 273 0.0 0.0 0.00 0.00 0.00 75 1013.0
20260505013034 61 279 0.0 0.0 0.00 0.00 0.00 69 1013.2
20260505011540 61 279 0.0 0.0 0.00 0.00 0.00 69 1013.1
20260505010033 61 277 0.0 0.0 0.00 0.00 0.00 69 1013.3
20260505003052 61 280 0.0 0.0 0.00 0.00 0.00 65 1013.4
20260505001548 63 280 0.0 0.0 0.00 0.00 0.00 62 1013.3
20260505000055 65 238 0.0 0.0 0.00 0.00 0.00 57 1013.1
20260504233041 65 269 0.0 0.0 0.00 0.00 0.00 61 1013.0
20260504231541 65 261 0.9 0.0 0.00 0.00 0.00 60 1013.1
20260504230045 66 263 0.0 0.0 0.00 0.00 0.00 58 1013.1
20260504223048 66 261 0.9 0.0 0.00 0.00 0.00 57 1013.4
20260504221547 66 286 0.9 0.0 0.00 0.00 0.00 53 1013.5
20260504220047 66 283 0.9 0.0 0.00 0.00 0.00 58 1013.9
20260504213058 67 303 0.9 0.0 0.00 0.00 0.00 54 1014.1
20260504211557 67 249 0.9 0.0 0.00 0.00 0.00 53 1013.9
20260504210106 68 261 0.9 0.0 0.00 0.00 0.00 51 1014.0
20260504203049 69 244 0.9 0.0 0.00 0.00 0.00 49 1013.8
20260504201542 68 250 1.7 0.0 0.00 0.00 0.00 48 1013.9
20260504200043 69 240 1.7 0.0 0.00 0.00 0.00 45 1013.7
20260504193035 67 279 1.7 0.0 0.00 0.00 0.00 50 1014.0
20260504191534 67 250 1.7 0.0 0.00 0.00 0.00 51 1014.0
20260504190033 67 255 0.9 0.0 0.00 0.00 0.00 52 1014.1
20260504183040 65 280 1.7 0.0 0.00 0.00 0.00 54 1014.3
20260504181539 65 261 1.7 0.0 0.00 0.00 0.00 55 1014.5
20260504180037 65 268 0.9 0.0 0.00 0.00 0.00 57 1014.4
20260504173057 63 256 0.9 0.0 0.00 0.00 0.00 60 1014.3
20260504171545 63 256 0.9 0.0 0.00 0.00 0.00 59 1014.3